Location: Unspecified
(0.0000°N, 0.0000°E)
Time: 18:38:31
(UTC+00:00)

deb OV3-4 - Pass Details

Date: 17 April 2026
Orbit: 581 x 4210 km, 40.6° (Epoch: 13 May)

Event Time Altitude Azimuth Distance (km) Brightness Sun altitude
Rises 04:12:10 0° 181° (S) 3,985 ? -26.4°
Reaches altitude 10° 04:17:14 10° 149° (SSE) 3,694 ? -25.1°
Maximum altitude 04:20:37 12° 129° (SE) 3,978 ? -24.3°
Drops below altitude 10° 04:24:40 10° 109° (ESE) 4,667 ? -23.3°
Sets 04:33:48 0° 83° (E) 6,738 ? -21.1°
